Weather History for KCQB - November, 2011

Change the Weather History Date:

Monday, November 28, 2011

  Actual Average (KCUH) Record (KCUH)
Temperature  
Mean Temperature 38 °F -  
Max Temperature 51 °F 50 °F 76 °F (1949)
Min Temperature 26 °F 29 °F 13 °F (1976)
Degree Days  
Heating Degree Days 26    
Moisture  
Dew Point 22 °F    
Average Humidity 61    
Maximum Humidity 86    
Minimum Humidity 26    
Precipitation  
Precipitation 0.00 in - - ()
Sea Level Pressure  
Sea Level Pressure 30.12 in    
Wind  
Wind Speed 4 mph (NNW)    
Max Wind Speed 9 mph    
Max Gust Speed -    
Visibility 10 miles    
Events      
Averages and records for this station are not official NWS values.
T = Trace of Precipitation, MM = Missing Value Source: NWS Daily Summary

Daily Weather History Graph

Daily Weather History Graph

Search for Another Location

Airport or City:

Trip Planner

Search our weather history database for the weather conditions in past years. The results will help you decide how hot, cold, wet, or windy it might be!

Date:

Astronomy

Nov. 28, 2011 Rise Set
Actual Time 7:15 AM CST 5:14 PM CST
Civil Twilight 6:47 AM CST 5:42 PM CST
Nautical Twilight 6:16 AM CST 6:13 PM CST
Astronomical Twilight 5:45 AM CST 6:44 PM CST
Moon 10:27 AM CST (11/28) 9:00 PM CST (11/28)
Length of Visible Light 10h 54m
Length of Day
9h 58m
Waxing Crescent, 16% of the Moon is Illuminated
Nov 28
Waxing Crescent
Dec 2
First Quarter
Dec 10
Full
Dec 17
Last Quarter
Dec 24
New

Hourly Weather History & Observations

Time (CST) Temp. Windchill Dew Point Humidity Pressure Visibility Wind Dir Wind Speed Gust Speed Precip Events Conditions
12:15 AM 30.2 °F 25.4 °F 21.2 °F 69% 30.20 in 10.0 mi NW 4.6 mph - N/A   Clear
12:35 AM 30.2 °F 24.3 °F 21.2 °F 69% 30.20 in 10.0 mi NNW 5.8 mph - N/A   Clear
12:55 AM 28.4 °F 21.2 °F 21.2 °F 74% 30.20 in 10.0 mi NNW 6.9 mph - N/A   Clear
1:15 AM 28.4 °F 23.3 °F 21.2 °F 74% 30.19 in 10.0 mi NNW 4.6 mph - N/A   Clear
1:35 AM 28.4 °F 23.3 °F 21.2 °F 74% 30.18 in 10.0 mi NNW 4.6 mph - N/A   Clear
1:55 AM 28.4 °F 23.3 °F 21.2 °F 74% 30.18 in 10.0 mi NNW 4.6 mph - N/A   Clear
2:15 AM 28.4 °F 24.6 °F 21.2 °F 74% 30.18 in 10.0 mi North 3.5 mph - N/A   Clear
2:35 AM 28.4 °F 22.2 °F 21.2 °F 74% 30.17 in 10.0 mi NNW 5.8 mph - N/A   Clear
2:55 AM 26.6 °F 21.2 °F 21.2 °F 80% 30.17 in 10.0 mi NNW 4.6 mph - N/A   Clear
3:15 AM 28.4 °F 24.6 °F 21.2 °F 74% 30.17 in 10.0 mi NNW 3.5 mph - N/A   Clear
3:35 AM 28.4 °F 22.2 °F 21.2 °F 74% 30.17 in 10.0 mi NNW 5.8 mph - N/A   Clear
3:55 AM 28.4 °F 23.3 °F 21.2 °F 74% 30.17 in 10.0 mi North 4.6 mph - N/A   Clear
4:15 AM 26.6 °F 21.2 °F 21.2 °F 80% 30.16 in 10.0 mi NNW 4.6 mph - N/A   Clear
4:35 AM 26.6 °F 21.2 °F 21.2 °F 80% 30.16 in 10.0 mi North 4.6 mph - N/A   Clear
4:55 AM 26.6 °F 21.2 °F 21.2 °F 80% 30.16 in 10.0 mi North 4.6 mph - N/A   Clear
5:15 AM 26.6 °F 20.0 °F 21.2 °F 80% 30.16 in 10.0 mi North 5.8 mph - N/A   Clear
5:35 AM 26.6 °F 20.0 °F 21.2 °F 80% 30.16 in 10.0 mi North 5.8 mph - N/A   Clear
5:55 AM 26.6 °F 21.2 °F 21.2 °F 80% 30.16 in 10.0 mi North 4.6 mph - N/A   Clear
6:35 AM 26.6 °F 21.2 °F 21.2 °F 80% 30.16 in 10.0 mi NNE 4.6 mph - N/A   Clear
6:55 AM 26.6 °F 22.6 °F 21.2 °F 80% 30.16 in 10.0 mi North 3.5 mph - N/A   Clear
7:15 AM 26.6 °F 21.2 °F 21.2 °F 80% 30.17 in 10.0 mi NNE 4.6 mph - N/A   Clear
7:35 AM 26.6 °F 22.6 °F 21.2 °F 80% 30.17 in 10.0 mi North 3.5 mph - N/A   Clear
7:55 AM 28.4 °F - 23.0 °F 80% 30.18 in 10.0 mi Calm Calm - N/A   Clear
8:15 AM 28.4 °F - 24.8 °F 86% 30.17 in 10.0 mi Calm Calm - N/A   Clear
8:35 AM 30.2 °F - 24.8 °F 80% 30.17 in 10.0 mi Calm Calm - N/A   Clear
8:55 AM 32.0 °F 28.7 °F 26.6 °F 80% 30.17 in 10.0 mi NW 3.5 mph - N/A   Clear
9:15 AM 32.0 °F - 26.6 °F 80% 30.17 in 10.0 mi Calm Calm - N/A   Clear
9:35 AM 33.8 °F - 26.6 °F 75% 30.16 in 10.0 mi Calm Calm - N/A   Clear
9:55 AM 35.6 °F 32.8 °F 28.4 °F 75% 30.16 in 10.0 mi West 3.5 mph - N/A   Clear
10:15 AM 35.6 °F - 26.6 °F 70% 30.16 in 10.0 mi Calm Calm - N/A   Clear
10:35 AM 37.4 °F - 26.6 °F 65% 30.16 in 10.0 mi Calm Calm - N/A   Clear
10:55 AM 39.2 °F - 26.6 °F 61% 30.15 in 10.0 mi Calm Calm - N/A   Clear
11:15 AM 41.0 °F - 26.6 °F 57% 30.14 in 10.0 mi Calm Calm - N/A   Clear
11:35 AM 41.0 °F 39.0 °F 28.4 °F 61% 30.13 in 10.0 mi NW 3.5 mph - N/A   Clear
11:55 AM 42.8 °F 39.3 °F 23.0 °F 46% 30.12 in 10.0 mi NNE 5.8 mph - N/A   Clear
12:15 PM 42.8 °F 39.3 °F 24.8 °F 49% 30.11 in 10.0 mi NNW 5.8 mph - N/A   Clear
12:35 PM 44.6 °F 42.2 °F 23.0 °F 43% 30.09 in 10.0 mi NNW 4.6 mph - N/A   Clear
1:15 PM 46.4 °F - 23.0 °F 40% 30.07 in 10.0 mi Calm Calm - N/A   Clear
1:35 PM 48.2 °F - 23.0 °F 37% 30.06 in 10.0 mi NW 6.9 mph - N/A   Clear
1:55 PM 50.0 °F - 23.0 °F 35% 30.06 in 10.0 mi NNW 5.8 mph - N/A   Clear
2:15 PM 50.0 °F - 21.2 °F 32% 30.05 in 10.0 mi North 6.9 mph - N/A   Clear
2:35 PM 50.0 °F - 19.4 °F 30% 30.04 in 10.0 mi NNW 8.1 mph - N/A   Clear
2:55 PM 50.0 °F - 15.8 °F 26% 30.04 in 10.0 mi NNW 8.1 mph - N/A   Clear
3:15 PM 51.8 °F - 17.6 °F 26% 30.03 in 10.0 mi North 8.1 mph - N/A   Clear
3:35 PM 50.0 °F - 17.6 °F 28% 30.04 in 10.0 mi NNW 5.8 mph - N/A   Clear
3:55 PM 50.0 °F - 19.4 °F 30% 30.03 in 10.0 mi NNW 6.9 mph - N/A   Clear
4:15 PM 50.0 °F - 19.4 °F 30% 30.04 in 10.0 mi NNW 9.2 mph - N/A   Clear
4:35 PM 48.2 °F - 21.2 °F 34% 30.04 in 10.0 mi NNW 6.9 mph - N/A   Clear
4:55 PM 46.4 °F 43.5 °F 21.2 °F 37% 30.04 in 10.0 mi NNW 5.8 mph - N/A   Clear
5:35 PM 44.6 °F - 23.0 °F 43% 30.03 in 10.0 mi Calm Calm - N/A   Clear
5:55 PM 44.6 °F - 21.2 °F 39% 30.03 in 10.0 mi Calm Calm - N/A   Clear
6:15 PM 41.0 °F 39.0 °F 26.6 °F 57% 30.03 in 10.0 mi NNE 3.5 mph - N/A   Clear
6:35 PM 44.6 °F - 21.2 °F 39% 30.03 in 10.0 mi Calm Calm - N/A   Clear
6:55 PM 42.8 °F 41.1 °F 23.0 °F 46% 30.03 in 10.0 mi North 3.5 mph - N/A   Clear
7:15 PM 41.0 °F 38.0 °F 23.0 °F 49% 30.04 in 10.0 mi North 4.6 mph - N/A   Clear
7:35 PM 41.0 °F 38.0 °F 23.0 °F 49% 30.05 in 10.0 mi NNW 4.6 mph - N/A   Clear
8:15 PM 37.4 °F 32.8 °F 23.0 °F 56% 30.06 in 10.0 mi NNW 5.8 mph - N/A   Clear
8:55 PM 37.4 °F 33.8 °F 23.0 °F 56% 30.08 in 10.0 mi North 4.6 mph - N/A   Clear
9:15 PM 37.4 °F 32.8 °F 23.0 °F 56% 30.08 in 10.0 mi North 5.8 mph - N/A   Clear
9:35 PM 35.6 °F 31.7 °F 23.0 °F 60% 30.08 in 10.0 mi North 4.6 mph - N/A   Clear
9:55 PM 35.6 °F 31.7 °F 23.0 °F 60% 30.09 in 10.0 mi North 4.6 mph - N/A   Clear
10:15 PM 35.6 °F 31.7 °F 24.8 °F 65% 30.09 in 10.0 mi North 4.6 mph - N/A   Clear
10:35 PM 35.6 °F 30.7 °F 24.8 °F 65% 30.10 in 10.0 mi North 5.8 mph - N/A   Clear
11:15 PM 35.6 °F 31.7 °F 24.8 °F 65% 30.11 in 10.0 mi NW 4.6 mph - N/A   Clear
11:35 PM 35.6 °F 31.7 °F 24.8 °F 65% 30.11 in 10.0 mi NW 4.6 mph - N/A   Clear
11:55 PM 35.6 °F 30.7 °F 24.8 °F 65% 30.11 in 10.0 mi NNW 5.8 mph - N/A   Clear